Location: Kalberh�ni
(46.4610°N, 7.2453°E)
Time: 03:45:25
(UTC+00:00)

Cosmos 1606 Rocket - Visible Passes

Search period start: 17 October 2021 00:00
Search period end: 27 October 2021 00:00
Orbit: 604 x 631 km, 82.5° (Epoch: 16 October)

Date Brightness Start Highest point End Pass type
(mag) Time Alt. Az. Time Alt. Az. Time Alt. Az.
19 Oct 6.6 05:01:36 10° NE 05:03:37 13° ENE 05:05:37 10° E visible
20 Oct 6.3 05:17:20 10° NNE 05:20:44 21° ENE 05:24:05 10° ESE visible
23 Oct 6.7 04:31:05 10° NE 04:33:04 13° ENE 04:35:02 10° E visible
23 Oct6.818:51:04NNE18:51:04NNE18:38:33Svisible
24 Oct 6.3 04:46:49 10° NNE 04:50:11 21° ENE 04:53:31 10° ESE visible
24 Oct 6.0 18:57:14 10° SSW 19:07:13 - N 18:57:43 13° SSW visible
25 Oct 5.3 05:03:08 10° N 05:07:12 35° ENE 05:11:12 10° SE visible
25 Oct 4.9 17:37:48 10° SE 17:45:48 - NNE 17:40:11 19° ESE visible
25 Oct 4.9 19:14:20 10° SSW 19:22:48 10° N 19:22:51 10° N visible
26 Oct 4.1 05:19:44 10° N 05:24:06 62° ENE 05:28:25 10° SSE visible
26 Oct 4.1 17:53:38 10° SSE 17:57:41 34° E 18:01:42 10° NNE visible
26 Oct 5.7 19:31:51 10° SW 19:35:34 25° WNW 19:39:17 10° NNW visible
